Flag for Canada Weather past 2 weeks in Victoria, British Columbia, Canada

Now
73 °F

Passing clouds.


Feels Like: 76 °F
Forecast: 57 / 71 °F
Wind: 8 mph from Southeast

Location: Victoria Int. Airportb. C.

Current Time: Jul 30, 2014 at 2:00:26 PM

Latest Report: Jul 30, 2014 at 1:00 PM


Visibility: 30 mi

Pressure: 30.14 "Hg

Humidity: 61%

Dew point: 59 °F

Location of VictoriaLocation

Historic Weather in Victoria — Graph

°F

Victoria temperature yesterday

Maximum temperature yesterday: 79 °F (at 5:00 PM)
Minimum temperature yesterday: 54 °F (at 6:00 AM)
Average temperature yesterday: 66 °F

Past Weeks' High & Low Weather Summary

 TemperatureHumidityPressure
High81 °F (Jul 28, 3:00 PM)94% (Jul 16, 12:00 AM)30.21 "Hg (Jul 16, 12:00 AM)
Low52 °F (Jul 16, 3:00 AM)39% (Jul 27, 6:00 PM)29.90 "Hg (Jul 16, 9:00 PM)
Average62 °F72%30.05 "Hg
* Reported Jul 15 1:00 PM — Jul 30 1:00 PM, Victoria, Weather by CustomWeather, © 2014

Note: Actual official high and low records may vary slightly from our data, if they occured in-between our weather recording intervals... More about our weather records

Advertising

Victoria weather history for previous 24 hours

 ConditionsComfort  
Time TempWeatherWind HumidityBarometerVisibility
1:00 PM
Jul 30
73 °FPassing clouds.8 mph61%30.14 "Hg30 mi
12:00 PM70 °FPassing clouds.7 mph64%30.14 "Hg30 mi
11:00 AM70 °FSunny.6 mph64%30.14 "Hg30 mi
10:00 AM66 °FSunny.6 mph68%30.15 "Hg30 mi
9:00 AM64 °FSunny.2 mph73%30.15 "Hg30 mi
8:00 AM61 °FPassing clouds.No wind77%30.14 "Hg30 mi
7:00 AM57 °FPassing clouds.No wind88%30.14 "Hg30 mi
6:00 AM55 °FPassing clouds.No wind88%30.12 "Hg30 mi
5:00 AM55 °FPassing clouds.3 mph88%30.11 "Hg30 mi
4:00 AM57 °FClear.2 mph82%30.10 "Hg30 mi
3:00 AM57 °FClear.2 mph82%30.09 "Hg30 mi
2:00 AM57 °FClear.3 mph88%30.07 "Hg30 mi
1:00 AM59 °FClear.3 mph82%30.06 "Hg30 mi
12:00 AM61 °FClear.2 mph77%30.05 "Hg30 mi
11:00 PM
Jul 29
63 °FClear.2 mph73%30.05 "Hg30 mi
10:00 PM64 °FPassing clouds.No wind68%30.05 "Hg30 mi
9:00 PM66 °FPassing clouds.3 mph60%30.04 "Hg30 mi
8:00 PM70 °FPassing clouds.6 mph53%30.03 "Hg30 mi
7:00 PM77 °FPassing clouds.6 mph44%30.03 "Hg30 mi
6:00 PM75 °FPassing clouds.7 mph47%30.04 "Hg30 mi
5:00 PM79 °FPassing clouds.7 mph45%30.06 "Hg30 mi
4:00 PM75 °FPassing clouds.7 mph50%30.09 "Hg30 mi
3:00 PM75 °FPassing clouds.7 mph50%30.10 "Hg30 mi
2:00 PM73 °FSunny.8 mph53%30.12 "Hg30 mi
Weather by CustomWeather, © 2014

See weather overviewHow to use our weather pages